Location: Chemnitz
(49.5500°N, 11.5830°E)
Time: 14:50:08
(UTC+02:00)

ISS - Pass Details

Date: 21 March 2017
Orbit: 399 x 409 km, 51.6° (Epoch: 30 March)

Event Time Altitude Azimuth Distance (km) Brightness Sun altitude
Exits shadow 04:36:20 41° 222° (SW) 606 -3.4 -16.4°
Maximum altitude 04:36:33 42° 210° (SSW) 599 -3.4 -16.3°
Drops below altitude 10° 04:39:42 10° 138° (SE) 1,472 -0.7 -15.9°
Sets 04:41:50 0° 131° (SE) 2,331 0.4 -15.5°
